RH
34 38 46 55 59 61 77 81 66 63 46 47 47 40 40 39 33 35 33 30 28 37
36 34 35 40 48 55 57 72 76 73 51 45 48 47 50 42 47 43 46 37 32 36
37 36 37 40 45 50 62 63 69 84 55 45 50 48 45 42 44 43 41 38 39 31
41 42 40 40 37 40 49 54 58 57 56 45 51 51 47 47 54 55 44 40 46 48
42 44 44 41 42 39 38 37 40 47 48 48 58 55 58 46 42 49 44 39 40 38
44 45 46 43 45 45 42 41 37 36 42 47 52 50 55 55 47 46 50 46 42 38
58 48 47 48 51 47 46 44 42 39 39 39 42 43 44 47 50 46 49 49 44 38
74 56 53 53 52 50 49 44 43 42 41 40 37 39 36 39 41 41 43 46 44 42
86 69 56 58 60 59 50 54 49 44 42 40 38 37 39 37 38 37 33 36 38 34
80 79 73 63 64 64 60 54 50 50 51 50 46 41 38 39 36 34 36 39 38 37
83 82 75 72 71 68 63 58 57 50 49 49 47 48 45 42 40 37 31 31 33 36
74 78 80 78 73 69 69 65 60 58 56 54 51 49 48 49 48 43 37 32 30 31
53 61 68 77 82 78 75 73 72 71 75 71 68 66 56 56 54 47 45 42 37 33
42 40 46 51 61 76 81 79 81 80 80 80 80 79 77 67 67 64 55 46 43 40